TimePST,TemperatureF,Dew PointF,Humidity,Sea Level PressureIn,VisibilityMPH,Wind Direction,Wind SpeedMPH,Gust SpeedMPH,PrecipitationIn,Events,Conditions,WindDirDegrees,DateUTC
12:15 AM,32.0,32.0,100,29.92,8.0,Calm,Calm,-,N/A,,Clear,0,2012-12-13 08:15:00
12:35 AM,32.0,32.0,100,29.92,9.0,Calm,Calm,-,N/A,,Clear,0,2012-12-13 08:35:00
12:55 AM,33.8,33.8,100,29.92,10.0,Calm,Calm,-,N/A,,Clear,0,2012-12-13 08:55:00
1:15 AM,33.8,33.8,100,29.92,10.0,Calm,Calm,-,N/A,,Clear,0,2012-12-13 09:15:00
1:35 AM,32.0,32.0,100,29.92,10.0,Calm,Calm,-,N/A,,Clear,0,2012-12-13 09:35:00
1:55 AM,32.0,32.0,100,29.92,10.0,Calm,Calm,-,N/A,,Clear,0,2012-12-13 09:55:00
2:15 AM,32.0,32.0,100,29.92,10.0,Calm,Calm,-,N/A,,Partly Cloudy,0,2012-12-13 10:15:00
2:35 AM,32.0,32.0,100,29.93,10.0,Calm,Calm,-,N/A,,Clear,0,2012-12-13 10:35:00
2:55 AM,32.0,32.0,100,29.92,10.0,Calm,Calm,-,N/A,,Partly Cloudy,0,2012-12-13 10:55:00
3:15 AM,32.0,32.0,100,29.92,10.0,Calm,Calm,-,N/A,,Partly Cloudy,0,2012-12-13 11:15:00
3:35 AM,32.0,32.0,100,29.91,10.0,Calm,Calm,-,N/A,,Clear,0,2012-12-13 11:35:00
3:55 AM,30.2,30.2,100,29.92,10.0,Calm,Calm,-,N/A,,Scattered Clouds,0,2012-12-13 11:55:00
4:15 AM,30.2,30.2,100,29.92,8.0,Calm,Calm,-,N/A,,Mostly Cloudy,0,2012-12-13 12:15:00
4:35 AM,32.0,32.0,100,29.92,3.0,West,3.5,-,N/A,,Partly Cloudy,280,2012-12-13 12:35:00
4:55 AM,32.0,32.0,100,29.92,6.0,Calm,Calm,-,N/A,,Clear,0,2012-12-13 12:55:00
5:15 AM,30.2,30.2,100,29.92,5.0,Calm,Calm,-,N/A,,Scattered Clouds,0,2012-12-13 13:15:00
5:35 AM,32.0,32.0,100,29.92,9.0,Calm,Calm,-,N/A,,Overcast,0,2012-12-13 13:35:00
5:55 AM,32.0,32.0,100,29.93,8.0,Calm,Calm,-,N/A,,Mostly Cloudy,0,2012-12-13 13:55:00
6:15 AM,32.0,32.0,100,29.93,9.0,Calm,Calm,-,N/A,,Mostly Cloudy,0,2012-12-13 14:15:00
6:35 AM,32.0,32.0,100,29.94,9.0,WNW,4.6,-,N/A,,Partly Cloudy,300,2012-12-13 14:35:00
6:55 AM,32.0,32.0,100,29.94,8.0,Calm,Calm,-,N/A,,Clear,0,2012-12-13 14:55:00
7:15 AM,32.0,32.0,100,29.94,8.0,West,3.5,-,N/A,,Partly Cloudy,280,2012-12-13 15:15:00
7:35 AM,32.0,32.0,100,29.95,7.0,Calm,Calm,-,N/A,,Mostly Cloudy,0,2012-12-13 15:35:00
7:55 AM,32.0,32.0,100,29.95,7.0,Calm,Calm,-,N/A,,Overcast,0,2012-12-13 15:55:00
8:15 AM,32.0,32.0,100,29.96,4.0,Calm,Calm,-,N/A,,Overcast,0,2012-12-13 16:15:00
8:35 AM,33.8,33.8,100,29.96,7.0,Calm,Calm,-,N/A,,Scattered Clouds,0,2012-12-13 16:35:00
8:55 AM,35.6,35.6,100,29.96,10.0,WNW,3.5,-,N/A,,Clear,290,2012-12-13 16:55:00
9:15 AM,37.4,37.4,100,29.96,10.0,WNW,3.5,-,N/A,,Clear,290,2012-12-13 17:15:00
9:35 AM,37.4,37.4,100,29.96,10.0,Calm,Calm,-,N/A,,Clear,0,2012-12-13 17:35:00
9:55 AM,39.2,37.4,93,29.96,10.0,Calm,Calm,-,N/A,,Clear,0,2012-12-13 17:55:00
10:15 AM,41.0,39.2,93,29.96,10.0,Calm,Calm,-,N/A,,Clear,0,2012-12-13 18:15:00
10:35 AM,41.0,37.4,87,29.95,10.0,Calm,Calm,-,N/A,,Clear,0,2012-12-13 18:35:00
10:55 AM,44.6,37.4,76,29.95,10.0,Calm,Calm,-,N/A,,Clear,0,2012-12-13 18:55:00
11:15 AM,46.4,37.4,71,29.94,10.0,Calm,Calm,-,N/A,,Clear,0,2012-12-13 19:15:00
11:35 AM,46.4,37.4,71,29.93,10.0,West,3.5,-,N/A,,Clear,280,2012-12-13 19:35:00
11:55 AM,48.2,37.4,66,29.92,10.0,Calm,Calm,-,N/A,,Clear,0,2012-12-13 19:55:00
12:15 PM,48.2,37.4,66,29.91,10.0,Calm,Calm,-,N/A,,Clear,0,2012-12-13 20:15:00
12:35 PM,50.0,37.4,62,29.90,10.0,NW,4.6,-,N/A,,Clear,320,2012-12-13 20:35:00
12:55 PM,50.0,37.4,62,29.89,10.0,West,5.8,-,N/A,,Clear,280,2012-12-13 20:55:00
1:15 PM,51.8,39.2,62,29.89,10.0,West,5.8,-,N/A,,Clear,260,2012-12-13 21:15:00
1:35 PM,53.6,37.4,54,29.88,10.0,NNW,3.5,-,N/A,,Clear,330,2012-12-13 21:35:00
1:55 PM,53.6,35.6,51,29.88,10.0,NW,4.6,-,N/A,,Clear,320,2012-12-13 21:55:00
2:35 PM,53.6,33.8,47,29.87,10.0,NW,3.5,-,N/A,,Scattered Clouds,310,2012-12-13 22:35:00
3:15 PM,53.6,37.4,54,29.87,10.0,WSW,12.7,-,N/A,,Partly Cloudy,250,2012-12-13 23:15:00
3:35 PM,51.8,39.2,62,29.87,10.0,West,11.5,-,N/A,,Clear,280,2012-12-13 23:35:00
4:15 PM,50.0,39.2,66,29.87,10.0,West,8.1,-,N/A,,Clear,280,2012-12-14 00:15:00
4:55 PM,46.4,39.2,76,29.87,10.0,North,3.5,-,N/A,,Clear,10,2012-12-14 00:55:00
5:15 PM,44.6,39.2,81,29.88,10.0,Calm,Calm,-,N/A,,Clear,0,2012-12-14 01:15:00
5:55 PM,42.8,39.2,87,29.88,10.0,Calm,Calm,-,N/A,,Clear,0,2012-12-14 01:55:00
6:15 PM,41.0,39.2,93,29.88,10.0,North,3.5,-,N/A,,Clear,350,2012-12-14 02:15:00
6:35 PM,41.0,37.4,87,29.88,10.0,NNW,3.5,-,N/A,,Clear,340,2012-12-14 02:35:00
6:55 PM,39.2,37.4,93,29.88,10.0,Calm,Calm,-,N/A,,Clear,0,2012-12-14 02:55:00
7:15 PM,39.2,37.4,93,29.88,10.0,Calm,Calm,-,N/A,,Clear,0,2012-12-14 03:15:00
7:35 PM,35.6,33.8,93,29.88,10.0,Calm,Calm,-,N/A,,Clear,0,2012-12-14 03:35:00
7:55 PM,37.4,35.6,93,29.88,10.0,Calm,Calm,-,N/A,,Clear,0,2012-12-14 03:55:00
8:15 PM,35.6,35.6,100,29.88,10.0,Calm,Calm,-,N/A,,Partly Cloudy,0,2012-12-14 04:15:00
8:35 PM,35.6,33.8,93,29.88,10.0,Calm,Calm,-,N/A,,Clear,0,2012-12-14 04:35:00
8:55 PM,35.6,35.6,100,29.88,10.0,Calm,Calm,-,N/A,,Clear,0,2012-12-14 04:55:00
9:15 PM,35.6,35.6,100,29.88,10.0,Calm,Calm,-,N/A,,Clear,0,2012-12-14 05:15:00
9:55 PM,32.0,32.0,100,29.88,10.0,Calm,Calm,-,N/A,,Clear,0,2012-12-14 05:55:00
10:15 PM,33.8,33.8,100,29.88,10.0,Calm,Calm,-,N/A,,Clear,0,2012-12-14 06:15:00
10:35 PM,32.0,32.0,100,29.88,10.0,Calm,Calm,-,N/A,,Clear,0,2012-12-14 06:35:00
10:55 PM,32.0,32.0,100,29.88,10.0,Calm,Calm,-,N/A,,Clear,0,2012-12-14 06:55:00
11:15 PM,33.8,33.8,100,29.88,10.0,NW,3.5,-,N/A,,Clear,320,2012-12-14 07:15:00
11:35 PM,32.0,32.0,100,29.88,10.0,Calm,Calm,-,N/A,,Clear,0,2012-12-14 07:35:00
11:55 PM,32.0,32.0,100,29.88,10.0,Calm,Calm,-,N/A,,Clear,0,2012-12-14 07:55:00